| time (UTC) | temp F | wind direction | speed MPH | gust MPH | rain 1hr in | rain 24hr in | rain mn in | humidity % | barometer mb |
| 20260903054517 | 53 | 326 | 0.0 | 0.0 | 0.00 | 0.00 | 0.00 | 72 | 1014.4 |
| 20260903054016 | 54 | 326 | 0.0 | 0.0 | 0.00 | 0.00 | 0.00 | 71 | 1014.4 |
| 20260903053516 | 54 | 326 | 0.0 | 0.0 | 0.00 | 0.00 | 0.00 | 69 | 1014.4 |
| 20260903053016 | 55 | 326 | 0.0 | 0.0 | 0.00 | 0.00 | 0.00 | 70 | 1014.4 |
| 20260903052516 | 55 | 326 | 0.0 | 0.0 | 0.00 | 0.00 | 0.00 | 70 | 1014.5 |
| 20260903052017 | 55 | 326 | 0.0 | 0.0 | 0.00 | 0.00 | 0.00 | 70 | 1014.4 |
| 20260903051517 | 55 | 326 | 0.0 | 0.0 | 0.00 | 0.00 | 0.00 | 69 | 1014.5 |
| 20260903051015 | 55 | 326 | 0.0 | 0.0 | 0.00 | 0.00 | 0.00 | 69 | 1014.5 |
| 20260903050516 | 55 | 326 | 0.0 | 0.0 | 0.00 | 0.00 | 0.00 | 69 | 1014.5 |
| 20260903050016 | 56 | 326 | 0.0 | 0.0 | 0.00 | 0.00 | 0.00 | 68 | 1014.5 |
| 20260903045517 | 56 | 326 | 0.0 | 0.0 | 0.00 | 0.00 | 0.00 | 68 | 1014.5 |
| 20260903045016 | 56 | 326 | 0.0 | 0.0 | 0.00 | 0.00 | 0.00 | 67 | 1014.5 |
| 20260903044517 | 57 | 326 | 0.0 | 0.0 | 0.00 | 0.00 | 0.00 | 67 | 1014.6 |
| 20260903044016 | 57 | 326 | 0.0 | 0.0 | 0.00 | 0.00 | 0.00 | 67 | 1014.5 |
| 20260903043517 | 57 | 326 | 0.0 | 0.0 | 0.00 | 0.00 | 0.00 | 66 | 1014.6 |
| 20260903043016 | 57 | 326 | 0.0 | 0.0 | 0.00 | 0.00 | 0.00 | 66 | 1014.5 |
| 20260903042516 | 58 | 326 | 0.0 | 0.0 | 0.00 | 0.00 | 0.00 | 66 | 1014.4 |
| 20260903042017 | 58 | 326 | 0.0 | 0.0 | 0.00 | 0.00 | 0.00 | 66 | 1014.4 |
| 20260903041520 | 58 | 326 | 0.0 | 0.0 | 0.00 | 0.00 | 0.00 | 65 | 1014.4 |
| 20260903041016 | 59 | 326 | 0.0 | 0.0 | 0.00 | 0.00 | 0.00 | 66 | 1014.4 |
| 20260903040516 | 59 | 326 | 0.0 | 0.0 | 0.00 | 0.00 | 0.00 | 66 | 1014.2 |
| 20260903040017 | 59 | 326 | 0.0 | 0.0 | 0.00 | 0.00 | 0.00 | 66 | 1014.2 |
| 20260903035519 | 59 | 326 | 0.0 | 0.0 | 0.00 | 0.00 | 0.00 | 65 | 1014.1 |
| 20260903035016 | 59 | 326 | 0.0 | 4.0 | 0.00 | 0.00 | 0.00 | 65 | 1014.1 |
| 20260903034518 | 59 | 326 | 0.0 | 5.0 | 0.00 | 0.00 | 0.00 | 65 | 1014.0 |
| 20260903034016 | 60 | 326 | 0.0 | 5.0 | 0.00 | 0.00 | 0.00 | 64 | 1014.0 |
| 20260903033521 | 60 | 326 | 2.0 | 6.0 | 0.00 | 0.00 | 0.00 | 64 | 1014.0 |
| 20260903033016 | 60 | 326 | 0.0 | 6.0 | 0.00 | 0.00 | 0.00 | 63 | 1013.8 |
| 20260903032516 | 61 | 326 | 2.0 | 6.0 | 0.00 | 0.00 | 0.00 | 63 | 1013.7 |
| 20260903032016 | 61 | 325 | 3.0 | 6.0 | 0.00 | 0.00 | 0.00 | 62 | 1013.6 |
| 20260903031517 | 61 | 325 | 0.0 | 7.0 | 0.00 | 0.00 | 0.00 | 62 | 1013.6 |
| 20260903031017 | 61 | 325 | 4.0 | 7.0 | 0.00 | 0.00 | 0.00 | 61 | 1013.5 |
| 20260903030516 | 62 | 325 | 3.0 | 7.0 | 0.00 | 0.00 | 0.00 | 61 | 1013.5 |
| 20260903030021 | 62 | 323 | 0.0 | 7.0 | 0.00 | 0.00 | 0.00 | 61 | 1013.4 |
| 20260903025519 | 62 | 323 | 3.0 | 8.0 | 0.00 | 0.00 | 0.00 | 61 | 1013.4 |
| 20260903025016 | 63 | 328 | 3.0 | 9.0 | 0.00 | 0.00 | 0.00 | 60 | 1013.4 |
| 20260903024516 | 63 | 321 | 4.0 | 11.0 | 0.00 | 0.00 | 0.00 | 60 | 1013.3 |
| 20260903024016 | 64 | 322 | 4.0 | 11.0 | 0.00 | 0.00 | 0.00 | 59 | 1013.3 |
| 20260903023516 | 64 | 318 | 3.0 | 8.0 | 0.00 | 0.00 | 0.00 | 58 | 1013.2 |
| 20260903023016 | 64 | 301 | 3.0 | 8.0 | 0.00 | 0.00 | 0.00 | 58 | 1013.3 |
| 20260903022517 | 65 | 303 | 0.0 | 5.0 | 0.00 | 0.00 | 0.00 | 57 | 1013.2 |
| 20260903022016 | 65 | 303 | 2.0 | 5.0 | 0.00 | 0.00 | 0.00 | 57 | 1013.3 |
| 20260903021516 | 66 | 310 | 1.0 | 8.0 | 0.00 | 0.00 | 0.00 | 56 | 1013.2 |
| 20260903021017 | 66 | 293 | 0.0 | 9.0 | 0.00 | 0.00 | 0.00 | 55 | 1013.2 |
| 20260903020516 | 67 | 314 | 0.0 | 9.0 | 0.00 | 0.00 | 0.00 | 54 | 1013.1 |
| 20260903020016 | 67 | 298 | 0.0 | 10.0 | 0.00 | 0.00 | 0.00 | 53 | 1013.2 |
| 20260903015516 | 67 | 305 | 3.0 | 10.0 | 0.00 | 0.00 | 0.00 | 52 | 1013.2 |
| 20260903015015 | 68 | 326 | 3.0 | 10.0 | 0.00 | 0.00 | 0.00 | 52 | 1013.2 |
| 20260903014516 | 69 | 308 | 5.0 | 10.0 | 0.00 | 0.00 | 0.00 | 50 | 1013.2 |
| 20260903014018 | 69 | 272 | 1.0 | 8.0 | 0.00 | 0.00 | 0.00 | 49 | 1013.3 |
| 20260903013517 | 70 | 323 | 4.0 | 11.0 | 0.00 | 0.00 | 0.00 | 48 | 1013.3 |
| 20260903013029 | 70 | 325 | 3.0 | 11.0 | 0.00 | 0.00 | 0.00 | 47 | 1013.3 |
| 20260903012517 | 71 | 322 | 2.0 | 8.0 | 0.00 | 0.00 | 0.00 | 46 | 1013.3 |
| 20260903012016 | 71 | 308 | 2.0 | 11.0 | 0.00 | 0.00 | 0.00 | 46 | 1013.4 |
| 20260903011517 | 72 | 303 | 3.0 | 12.0 | 0.00 | 0.00 | 0.00 | 45 | 1013.3 |
| 20260903011016 | 72 | 337 | 3.0 | 12.0 | 0.00 | 0.00 | 0.00 | 44 | 1013.3 |
| 20260903010517 | 73 | 320 | 6.0 | 12.0 | 0.00 | 0.00 | 0.00 | 42 | 1013.2 |
| 20260903010029 | 74 | 282 | 2.0 | 9.0 | 0.00 | 0.00 | 0.00 | 41 | 1013.3 |
| 20260903005516 | 74 | 293 | 2.0 | 8.0 | 0.00 | 0.00 | 0.00 | 40 | 1013.2 |
| 20260903005017 | 74 | 299 | 2.0 | 8.0 | 0.00 | 0.00 | 0.00 | 39 | 1013.2 |
| 20260903004616 | 74 | 328 | 5.0 | 9.0 | 0.00 | 0.00 | 0.00 | 38 | 1013.2 |
| 20260903004016 | 75 | 322 | 0.0 | 6.0 | 0.00 | 0.00 | 0.00 | 38 | 1013.1 |
| 20260903003516 | 76 | 51 | 3.0 | 7.0 | 0.00 | 0.00 | 0.00 | 35 | 1013.2 |
| 20260903003116 | 76 | 82 | 0.0 | 7.0 | 0.00 | 0.00 | 0.00 | 34 | 1013.2 |
| 20260903002517 | 76 | 206 | 0.0 | 5.0 | 0.00 | 0.00 | 0.00 | 36 | 1013.1 |
| 20260903001519 | 76 | 346 | 0.0 | 6.0 | 0.00 | 0.00 | 0.00 | 35 | 1013.3 |
| 20260903001016 | 76 | 315 | 0.0 | 6.0 | 0.00 | 0.00 | 0.00 | 35 | 1013.3 |
| 20260903000516 | 75 | 314 | 1.0 | 6.0 | 0.00 | 0.00 | 0.00 | 34 | 1013.3 |
| 20260903000017 | 74 | 304 | 0.0 | 5.0 | 0.00 | 0.00 | 0.00 | 36 | 1013.4 |
| 20260902235517 | 74 | 298 | 1.0 | 5.0 | 0.00 | 0.00 | 0.00 | 36 | 1013.4 |
| 20260902235017 | 75 | 340 | 0.0 | 1.0 | 0.00 | 0.00 | 0.00 | 36 | 1013.4 |
| 20260902234522 | 75 | 340 | 0.0 | 0.0 | 0.00 | 0.00 | 0.00 | 35 | 1013.5 |
| 20260902234016 | 76 | 340 | 0.0 | 0.0 | 0.00 | 0.00 | 0.00 | 34 | 1013.5 |
| 20260902233516 | 76 | 340 | 0.0 | 4.0 | 0.00 | 0.00 | 0.00 | 34 | 1013.6 |
| 20260902233017 | 76 | 339 | 1.0 | 8.0 | 0.00 | 0.00 | 0.00 | 33 | 1013.6 |
| 20260902232519 | 76 | 297 | 3.0 | 8.0 | 0.00 | 0.00 | 0.00 | 34 | 1013.6 |
| 20260902232016 | 76 | 303 | 0.0 | 7.0 | 0.00 | 0.00 | 0.00 | 34 | 1013.7 |
| 20260902231523 | 76 | 317 | 1.0 | 7.0 | 0.00 | 0.00 | 0.00 | 34 | 1013.7 |
| 20260902231016 | 76 | 326 | 0.0 | 8.0 | 0.00 | 0.00 | 0.00 | 35 | 1013.7 |
| 20260902230516 | 75 | 324 | 3.0 | 10.0 | 0.00 | 0.00 | 0.00 | 35 | 1013.8 |
| 20260902230016 | 75 | 335 | 1.0 | 10.0 | 0.00 | 0.00 | 0.00 | 36 | 1013.8 |
| 20260902225516 | 75 | 283 | 3.0 | 7.0 | 0.00 | 0.00 | 0.00 | 35 | 1013.8 |
| 20260902225017 | 75 | 319 | 0.0 | 9.0 | 0.00 | 0.00 | 0.00 | 36 | 1014.1 |
| 20260902224529 | 74 | 340 | 4.0 | 9.0 | 0.00 | 0.00 | 0.00 | 36 | 1014.1 |
| 20260902224024 | 74 | 299 | 2.0 | 9.0 | 0.00 | 0.00 | 0.00 | 38 | 1014.2 |
| 20260902223516 | 75 | 304 | 3.0 | 9.0 | 0.00 | 0.00 | 0.00 | 36 | 1014.2 |
| 20260902223017 | 75 | 294 | 0.0 | 7.0 | 0.00 | 0.00 | 0.00 | 36 | 1014.2 |
| 20260902222517 | 74 | 306 | 0.0 | 8.0 | 0.00 | 0.00 | 0.00 | 37 | 1014.2 |
| 20260902222018 | 73 | 298 | 2.0 | 9.0 | 0.00 | 0.00 | 0.00 | 39 | 1014.3 |
| 20260902221521 | 73 | 310 | 3.0 | 9.0 | 0.00 | 0.00 | 0.00 | 38 | 1014.3 |
| 20260902221017 | 74 | 295 | 2.0 | 9.0 | 0.00 | 0.00 | 0.00 | 37 | 1014.3 |
| 20260902220516 | 74 | 297 | 0.0 | 7.0 | 0.00 | 0.00 | 0.00 | 36 | 1014.4 |
| 20260902220040 | 74 | 294 | 1.0 | 10.0 | 0.00 | 0.00 | 0.00 | 36 | 1014.4 |
| 20260902215516 | 74 | 261 | 1.0 | 13.0 | 0.00 | 0.00 | 0.00 | 36 | 1014.5 |
| 20260902215016 | 75 | 289 | 1.0 | 13.0 | 0.00 | 0.00 | 0.00 | 35 | 1014.5 |
| 20260902214517 | 75 | 296 | 1.0 | 10.0 | 0.00 | 0.00 | 0.00 | 34 | 1014.5 |
| 20260902214016 | 76 | 170 | 0.0 | 15.0 | 0.00 | 0.00 | 0.00 | 30 | 1014.6 |
| 20260902213517 | 75 | 165 | 2.0 | 15.0 | 0.00 | 0.00 | 0.00 | 29 | 1014.7 |
| 20260902213017 | 76 | 174 | 0.0 | 8.0 | 0.00 | 0.00 | 0.00 | 28 | 1014.6 |
| 20260902212518 | 75 | 174 | 0.0 | 14.0 | 0.00 | 0.00 | 0.00 | 29 | 1014.7 |
| 20260902212016 | 74 | 151 | 2.0 | 13.0 | 0.00 | 0.00 | 0.00 | 30 | 1014.8 |
| 20260902211516 | 75 | 188 | 2.0 | 14.0 | 0.00 | 0.00 | 0.00 | 30 | 1014.9 |
| 20260902211117 | 75 | 160 | 8.0 | 14.0 | 0.00 | 0.00 | 0.00 | 29 | 1015.0 |
| 20260902210516 | 74 | 179 | 3.0 | 12.0 | 0.00 | 0.00 | 0.00 | 29 | 1014.9 |
| 20260902210021 | 76 | 163 | 6.0 | 12.0 | 0.00 | 0.00 | 0.00 | 28 | 1014.8 |
| 20260902205516 | 76 | 166 | 3.0 | 11.0 | 0.00 | 0.00 | 0.00 | 28 | 1014.9 |
| 20260902205016 | 75 | 204 | 2.0 | 11.0 | 0.00 | 0.00 | 0.00 | 29 | 1014.9 |
| 20260902204523 | 74 | 334 | 0.0 | 14.0 | 0.00 | 0.00 | 0.00 | 28 | 1015.0 |
| 20260902204016 | 74 | 192 | 4.0 | 14.0 | 0.00 | 0.00 | 0.00 | 29 | 1015.1 |
| 20260902203516 | 74 | 184 | 4.0 | 15.0 | 0.00 | 0.00 | 0.00 | 27 | 1015.0 |
| 20260902203016 | 74 | 166 | 8.0 | 15.0 | 0.00 | 0.00 | 0.00 | 28 | 1015.0 |
| 20260902202618 | 75 | 171 | 6.0 | 16.0 | 0.00 | 0.00 | 0.00 | 28 | 1015.0 |
| 20260902202017 | 73 | 186 | 7.0 | 16.0 | 0.00 | 0.00 | 0.00 | 28 | 1015.0 |
| 20260902201534 | 73 | 181 | 4.0 | 15.0 | 0.00 | 0.00 | 0.00 | 28 | 1015.1 |
| 20260902201016 | 72 | 201 | 5.0 | 15.0 | 0.00 | 0.00 | 0.00 | 30 | 1015.1 |
| 20260902200517 | 73 | 184 | 5.0 | 10.0 | 0.00 | 0.00 | 0.00 | 29 | 1015.2 |
| 20260902200017 | 73 | 150 | 3.0 | 9.0 | 0.00 | 0.00 | 0.00 | 28 | 1015.2 |
| 20260902195517 | 74 | 178 | 1.0 | 8.0 | 0.00 | 0.00 | 0.00 | 29 | 1015.1 |
| 20260902195018 | 73 | 321 | 2.0 | 7.0 | 0.00 | 0.00 | 0.00 | 31 | 1015.2 |
| 20260902194528 | 72 | 295 | 0.0 | 7.0 | 0.00 | 0.00 | 0.00 | 34 | 1015.1 |
| 20260902194016 | 73 | 293 | 1.0 | 5.0 | 0.00 | 0.00 | 0.00 | 33 | 1015.3 |
| 20260902193517 | 73 | 291 | 0.0 | 9.0 | 0.00 | 0.00 | 0.00 | 32 | 1015.3 |
| 20260902193117 | 73 | 289 | 1.0 | 9.0 | 0.00 | 0.00 | 0.00 | 34 | 1015.3 |
| 20260902192517 | 71 | 335 | 1.0 | 7.0 | 0.00 | 0.00 | 0.00 | 36 | 1015.4 |
| 20260902192016 | 71 | 359 | 1.0 | 7.0 | 0.00 | 0.00 | 0.00 | 35 | 1015.4 |
| 20260902191519 | 71 | 100 | 0.0 | 8.0 | 0.00 | 0.00 | 0.00 | 36 | 1015.5 |
| 20260902191019 | 71 | 15 | 5.0 | 8.0 | 0.00 | 0.00 | 0.00 | 36 | 1015.5 |
| 20260902190517 | 71 | 186 | 1.0 | 5.0 | 0.00 | 0.00 | 0.00 | 36 | 1015.6 |
| 20260902190017 | 71 | 291 | 0.0 | 5.0 | 0.00 | 0.00 | 0.00 | 39 | 1015.6 |
| 20260902185517 | 70 | 297 | 2.0 | 8.0 | 0.00 | 0.00 | 0.00 | 39 | 1015.7 |
| 20260902185016 | 70 | 294 | 1.0 | 9.0 | 0.00 | 0.00 | 0.00 | 40 | 1015.7 |
| 20260902184519 | 70 | 315 | 2.0 | 7.0 | 0.00 | 0.00 | 0.00 | 39 | 1015.8 |
| 20260902184017 | 70 | 310 | 1.0 | 6.0 | 0.00 | 0.00 | 0.00 | 40 | 1015.8 |
| 20260902183517 | 70 | 287 | 0.0 | 11.0 | 0.00 | 0.00 | 0.00 | 41 | 1015.9 |
| 20260902183024 | 69 | 314 | 4.0 | 11.0 | 0.00 | 0.00 | 0.00 | 41 | 1016.0 |
| 20260902182517 | 69 | 303 | 1.0 | 10.0 | 0.00 | 0.00 | 0.00 | 41 | 1016.0 |
| 20260902182017 | 69 | 295 | 3.0 | 9.0 | 0.00 | 0.00 | 0.00 | 42 | 1016.0 |
| 20260902181517 | 68 | 292 | 4.0 | 9.0 | 0.00 | 0.00 | 0.00 | 44 | 1016.0 |
| 20260902181016 | 68 | 328 | 3.0 | 12.0 | 0.00 | 0.00 | 0.00 | 44 | 1016.1 |
| 20260902180516 | 68 | 280 | 3.0 | 12.0 | 0.00 | 0.00 | 0.00 | 44 | 1016.1 |
| 20260902180016 | 68 | 289 | 4.0 | 9.0 | 0.00 | 0.00 | 0.00 | 44 | 1016.2 |
| 20260902175518 | 68 | 306 | 2.0 | 8.0 | 0.00 | 0.00 | 0.00 | 44 | 1016.2 |
| 20260902175018 | 68 | 299 | 1.0 | 6.0 | 0.00 | 0.00 | 0.00 | 43 | 1016.2 |
| 20260902174520 | 68 | 309 | 1.0 | 5.0 | 0.00 | 0.00 | 0.00 | 44 | 1016.2 |
| 20260902174019 | 67 | 314 | 0.0 | 5.0 | 0.00 | 0.00 | 0.00 | 44 | 1016.1 |
| 20260902173519 | 67 | 316 | 0.0 | 4.0 | 0.00 | 0.00 | 0.00 | 46 | 1016.1 |
| 20260902173022 | 66 | 318 | 1.0 | 7.0 | 0.00 | 0.00 | 0.00 | 47 | 1016.2 |
| 20260902172521 | 65 | 326 | 4.0 | 8.0 | 0.00 | 0.00 | 0.00 | 47 | 1016.2 |
| 20260902172017 | 66 | 308 | 3.0 | 7.0 | 0.00 | 0.00 | 0.00 | 47 | 1016.2 |
| 20260902171517 | 66 | 320 | 1.0 | 6.0 | 0.00 | 0.00 | 0.00 | 47 | 1016.3 |
| 20260902171017 | 65 | 324 | 4.0 | 8.0 | 0.00 | 0.00 | 0.00 | 47 | 1016.4 |
| 20260902170520 | 65 | 320 | 2.0 | 8.0 | 0.00 | 0.00 | 0.00 | 48 | 1016.3 |
| 20260902170117 | 64 | 313 | 3.0 | 7.0 | 0.00 | 0.00 | 0.00 | 49 | 1016.3 |
| 20260902165517 | 64 | 308 | 3.0 | 7.0 | 0.00 | 0.00 | 0.00 | 49 | 1016.3 |
| 20260902165017 | 64 | 235 | 1.0 | 5.0 | 0.00 | 0.00 | 0.00 | 49 | 1016.3 |
| 20260902164517 | 63 | 231 | 3.0 | 5.0 | 0.00 | 0.00 | 0.00 | 50 | 1016.3 |
| 20260902164017 | 63 | 229 | 0.0 | 4.0 | 0.00 | 0.00 | 0.00 | 51 | 1016.3 |
| 20260902163517 | 62 | 228 | 0.0 | 4.0 | 0.00 | 0.00 | 0.00 | 52 | 1016.3 |
| 20260902163018 | 62 | 228 | 0.0 | 0.0 | 0.00 | 0.00 | 0.00 | 53 | 1016.4 |
| 20260902162516 | 62 | 228 | 0.0 | 0.0 | 0.00 | 0.00 | 0.00 | 52 | 1016.4 |
| 20260902162020 | 62 | 228 | 0.0 | 0.0 | 0.00 | 0.00 | 0.00 | 54 | 1016.3 |
| 20260902161517 | 61 | 228 | 0.0 | 5.0 | 0.00 | 0.00 | 0.00 | 56 | 1016.4 |
| 20260902161017 | 61 | 228 | 0.0 | 5.0 | 0.00 | 0.00 | 0.00 | 57 | 1016.4 |
| 20260902160516 | 60 | 226 | 0.0 | 4.0 | 0.00 | 0.00 | 0.00 | 58 | 1016.6 |
| 20260902160017 | 60 | 225 | 0.0 | 4.0 | 0.00 | 0.00 | 0.00 | 58 | 1016.6 |
| 20260902155518 | 60 | 220 | 0.0 | 5.0 | 0.00 | 0.00 | 0.00 | 59 | 1016.7 |
| 20260902155019 | 59 | 220 | 0.0 | 5.0 | 0.00 | 0.00 | 0.00 | 61 | 1016.7 |
| 20260902154521 | 58 | 206 | 0.0 | 0.0 | 0.00 | 0.00 | 0.00 | 61 | 1016.8 |
| 20260902154017 | 58 | 205 | 0.0 | 0.0 | 0.00 | 0.00 | 0.00 | 61 | 1016.7 |
| 20260902153521 | 57 | 204 | 0.0 | 0.0 | 0.00 | 0.00 | 0.00 | 61 | 1016.7 |
| 20260902153039 | 57 | 204 | 0.0 | 0.0 | 0.00 | 0.00 | 0.00 | 62 | 1016.6 |
| 20260902152518 | 56 | 204 | 0.0 | 0.0 | 0.00 | 0.00 | 0.00 | 61 | 1016.6 |
| 20260902152017 | 55 | 204 | 0.0 | 0.0 | 0.00 | 0.00 | 0.00 | 61 | 1016.6 |
| 20260902151518 | 53 | 204 | 0.0 | 0.0 | 0.00 | 0.00 | 0.00 | 63 | 1016.6 |
| 20260902151019 | 53 | 204 | 0.0 | 0.0 | 0.00 | 0.00 | 0.00 | 64 | 1016.5 |
| 20260902150516 | 52 | 204 | 0.0 | 0.0 | 0.00 | 0.00 | 0.00 | 65 | 1016.4 |
| 20260902150018 | 51 | 204 | 0.0 | 0.0 | 0.00 | 0.00 | 0.00 | 67 | 1016.3 |
| 20260902145517 | 50 | 204 | 0.0 | 0.0 | 0.00 | 0.00 | 0.00 | 69 | 1016.3 |
| 20260902145018 | 49 | 204 | 0.0 | 0.0 | 0.00 | 0.00 | 0.00 | 70 | 1016.3 |
| 20260902144517 | 48 | 204 | 0.0 | 0.0 | 0.00 | 0.00 | 0.00 | 72 | 1016.2 |
| 20260902144017 | 48 | 204 | 0.0 | 0.0 | 0.00 | 0.00 | 0.00 | 72 | 1016.1 |
| 20260902143517 | 48 | 204 | 0.0 | 0.0 | 0.00 | 0.00 | 0.00 | 74 | 1015.9 |
| 20260902143018 | 47 | 204 | 0.0 | 0.0 | 0.00 | 0.00 | 0.00 | 73 | 1015.9 |
| 20260902142517 | 47 | 204 | 0.0 | 0.0 | 0.00 | 0.00 | 0.00 | 74 | 1015.9 |
| 20260902142018 | 46 | 204 | 0.0 | 1.0 | 0.00 | 0.00 | 0.00 | 75 | 1015.7 |
| 20260902141517 | 47 | 204 | 0.0 | 2.0 | 0.00 | 0.00 | 0.00 | 74 | 1015.8 |
| 20260902141017 | 46 | 204 | 1.0 | 2.0 | 0.00 | 0.00 | 0.00 | 78 | 1015.8 |
| 20260902140517 | 45 | 204 | 0.0 | 2.0 | 0.00 | 0.00 | 0.00 | 77 | 1015.9 |
| 20260902140019 | 45 | 204 | 0.0 | 2.0 | 0.00 | 0.00 | 0.00 | 78 | 1015.8 |
| 20260902134016 | 45 | 204 | 0.0 | 3.0 | 0.00 | 0.00 | 0.00 | 77 | 1015.6 |
| 20260902133517 | 45 | 204 | 0.0 | 3.0 | 0.00 | 0.00 | 0.00 | 77 | 1015.6 |
| 20260902133018 | 45 | 204 | 0.0 | 0.0 | 0.00 | 0.00 | 0.00 | 76 | 1015.5 |
| 20260902132520 | 45 | 204 | 0.0 | 2.0 | 0.00 | 0.00 | 0.00 | 77 | 1015.4 |
| 20260902132029 | 45 | 204 | 0.0 | 2.0 | 0.00 | 0.00 | 0.00 | 77 | 1015.3 |